Location: Esterri de Aneo
(42.6284°N, 1.1223°E)
Time: 16:27:53
(UTC+00:00)

Cosmos 1538 Rocket - Pass Details

Date: 11 December 2025
Orbit: 747 x 789 km, 74.0° (Epoch: 22 January)

Event Time Altitude Azimuth Distance (km) Brightness Sun altitude
Rises 17:53:28 0° 343° (NNW) 3,252 7.3 -16.2°
Reaches altitude 10° 17:55:54 10° 347° (NNW) 2,327 6.5 -16.6°
Maximum altitude 18:01:07 58° 67° (ENE) 906 4.0 -17.5°
Drops below altitude 10° 18:06:21 10° 146° (SSE) 2,335 6.3 -18.4°
Sets 18:08:46 0° 151° (SSE) 3,263 7.1 -18.9°
